Terug naar catalogus

COSMOS 2251 DEB

LostLEO
NORAD 35787·DEBRIS·🇷🇺 Russia

Gelanceerd Jun 16, 1993 vanaf Plesetsk Cosmodrome

Loading…

Volgende Passages (komende 24 uur)

TLE

VerouderdSource: Space-Track

Epoch: Nov 14, 2022, 21:11 UTC

1 35787U 93036ASH 22318.88279052  .00000817  00000-0  28273-3 0  9999
2 35787  74.0366 169.6349 0021663 167.1242 193.0470 14.37161868711724

Volg COSMOS 2251 DEB in realtime met AllMySat

Download on the App Store